This demonstration page uses our WeatherBlox Daily Observations layout. Learn more.

Left ArrowRight Arrow

30.21309, -93.2044

Hourly Observations for May 14, 2022

Temp ( °F °C ) Dew Point ( °F °C ) Humidity (%) Winds ( mph kmh ) Pressure ( in mb ) Visibility ( mi km ) Precip ( " mm )
12:15 am 00:15 Partly Cloudy 72 22 67 19.5 86 86 SSE 9 15 29.98 1015 10 16 0.00 0.00
12:35 am 00:35 Partly Cloudy 71 21.6 66 19.1 86 86 SSE 8 13 29.97 1015 10 16 0.00 0.00
12:55 am 00:55 Clear 70 21 66 19 88 88 S 7 11 29.95 1014 10 16 0.00 0.00
1:15 am 01:15 Clear 70 21.3 67 19.2 88 88 S 6 9 29.95 1014 10 16 0.00 0.00
1:35 am 01:35 Clear 69 20.6 66 18.8 89 89 SE 5 7 29.94 1014 10 16 0.00 0.00
1:55 am 01:55 Clear 70 21 67 19.3 90 90 S 7 11 29.92 1013 10 16 0.00 0.00
2:15 am 02:15 Clear 71 21.6 68 19.8 90 90 SSW 7 11 29.90 1013 10 16 0.00 0.00
2:35 am 02:35 Clear 71 21.8 68 19.8 88 88 SW 3 6 29.90 1013 10 16 0.00 0.00
2:55 am 02:55 Clear 68 20.2 66 18.9 92 92 E 5 7 29.91 1013 10 16 0.00 0.00
3:15 am 03:15 Clear 69 20.7 67 19.3 92 92 Calm 29.90 1013 10 16 0.00 0.00
3:35 am 03:35 Clear 69 20.7 67 19.3 92 92 Calm 29.90 1013 10 16 0.00 0.00
3:55 am 03:55 Clear 71 21.8 68 19.9 89 89 WSW 6 9 29.91 1013 10 16 0.00 0.00
4:15 am 04:15 Clear 75 23.8 69 20.4 81 81 W 6 9 29.91 1013 10 16 0.00 0.00
4:35 am 04:35 Clear 74 23.4 68 20 81 81 WNW 7 11 29.92 1013 10 16 0.00 0.00
4:55 am 04:55 Clear 75 23.8 68 20.2 80 80 W 8 13 29.92 1013 10 16 0.00 0.00
5:15 am 05:15 Mostly Cloudy 73 22.9 68 20.1 84 84 N 5 7 29.93 1014 10 16 0.00 0.00
5:35 am 05:35 Partly Cloudy 71 21.9 68 20 89 89 N 3 6 29.92 1013 10 16 0.00 0.00
6:00 am 06:00 Mostly Clear 70 21 66 19 88 88 Calm 29.94 1014 10 16 0.00 0.00
6:54 am 06:54 Mostly Sunny 68 20 66 19 94 94 E 6 9 29.96 1015 10 16 0.00 0.00
7:46 am 07:46 Mostly Sunny 72 22 68 20 88 88 E 6 9 29.98 1015 10 16 0.00 0.00
8:51 am 08:51 Mostly Sunny 77 25 70 21 79 79 E 5 7 29.99 1016 10 16 0.00 0.00
9:46 am 09:46 Mostly Cloudy 79 26 70 21 74 74 Calm 30.01 1016 10 16 0.00 0.00
10:49 am 10:49 Mostly Cloudy 82 28 68 20 62 62 Calm 30.03 1017 10 16 0.00 0.00
11:53 am 11:53 Mostly Cloudy 84 29 68 20 58 58 Calm 30.02 1017 10 16 0.00 0.00
12:56 pm 12:56 Mostly Cloudy 86 30 68 20 55 55 SSE 6 9 30.01 1016 10 16 0.00 0.00
1:46 pm 13:46 Mostly Cloudy 86 30 66 19 52 52 S 7 11 30.00 1016 10 16 0.00 0.00
2:45 pm 14:45 Mostly Cloudy 88 31 70 21 55 55 S 9 15 29.97 1015 10 16 0.00 0.00
3:53 pm 15:53 Mostly Sunny 88 31 66 19 49 49 SSW 12 19 29.95 1014 10 16 0.00 0.00
4:45 pm 16:45 Mostly Sunny 88 31 66 19 49 49 SSW 17 28 29.95 1014 10 16 0.00 0.00
5:50 pm 17:50 Mostly Sunny 84 29 66 19 55 55 SSW 17 28 29.94 1014 10 16 0.00 0.00
6:52 pm 18:52 Mostly Sunny 82 28 68 20 62 62 SSW 12 19 29.92 1013 10 16 0.00 0.00
7:48 pm 19:48 Mostly Sunny 81 27 66 19 62 62 SW 12 19 29.93 1014 10 16 0.00 0.00
8:55 pm 20:55 Mostly Clear 79 26 68 20 70 70 SW 7 11 29.95 1014 10 16 0.00 0.00
9:45 pm 21:45 Mostly Clear 72 22 66 19 83 83 SSE 6 9 29.97 1015 10 16 0.00 0.00
10:15 pm 22:15 Clear 72 22.1 67 19.3 84 84 S 5 7 29.98 1015 10 16 0.00 0.00
10:35 pm 22:35 Clear 76 24.4 68 20 77 77 SW 3 6 29.98 1015 10 16 0.00 0.00
10:55 pm 22:55 Clear 70 21.2 66 18.9 87 87 SSW 5 7 29.98 1015 10 16 0.00 0.00
11:15 pm 23:15 Clear 70 21.1 67 19.3 90 90 SW 5 7 29.98 1015 10 16 0.00 0.00
11:35 pm 23:35 Clear 70 21 67 19.2 90 90 S 3 6 29.99 1016 10 16 0.00 0.00
11:55 pm 23:55 Clear 68 20.2 66 18.8 92 92 S 5 7 29.98 1015 10 16 0.00 0.00

Powered by AerisWeather